Location: Christchurch
(43.5330°S, 172.6330°E)
Time: 18:16:42
(UTC+13:00)

Cosmos 841 Rocket - Pass Details

Date: 24 January 2019
Orbit: 748 x 771 km, 74.0° (Epoch: 20 February)

Event Time Altitude Azimuth Distance (km) Brightness Sun altitude
Rises 22:52:59 0° 206° (SSW) 3,285 8.3 -16.3°
Reaches altitude 10° 22:55:26 10° 210° (SSW) 2,350 7.3 -16.6°
Maximum altitude 23:00:36 51° 284° (WNW) 974 4.2 -17.2°
Enters shadow 23:04:11 19° 353° (N) 1,776 5.0 -17.6°
